Wind_Speed
57 57 58 59 60 61 61 61 63 64 65 66 67 69 69 71 73 74 74 74 75 75 74 73 71 71 69 68 66 63 61 59 55 48 46 46 45 43 41 39 35 30 28
58 59 59 60 61 62 62 63 65 66 67 68 68 69 70 70 72 73 73 73 74 73 72 71 69 69 67 66 64 61 59 56 54 49 45 45 44 42 40 38 35 31 28
58 59 60 61 62 63 64 65 66 67 67 68 69 69 69 69 71 72 72 72 72 72 71 69 68 67 66 64 62 60 57 55 52 49 45 44 43 41 39 37 35 31 28
59 59 60 62 64 64 65 66 67 67 68 68 68 68 68 68 69 70 71 70 71 70 69 68 66 65 64 62 61 58 56 53 50 47 45 43 42 40 38 36 33 31 27
59 60 62 64 65 66 67 67 67 67 67 67 67 67 66 66 68 68 68 68 69 68 67 66 64 64 63 61 60 58 56 53 49 46 44 43 42 40 38 35 32 29 26
61 62 64 66 66 67 67 67 67 66 66 65 65 64 64 64 66 66 66 66 66 67 65 64 62 62 61 59 58 57 55 53 49 46 44 43 41 40 38 34 31 27 24
64 65 65 66 67 67 66 66 65 64 63 62 62 62 61 62 64 64 65 64 65 65 64 62 60 60 60 58 56 55 53 51 48 45 43 42 41 39 36 33 30 26 22
65 66 66 66 65 65 64 63 62 60 60 60 60 59 59 60 62 62 62 62 63 63 62 61 59 58 58 56 54 53 52 49 46 44 42 41 39 37 34 31 27 23 20
65 64 64 63 63 62 60 59 58 57 58 58 57 56 57 58 60 60 60 60 60 60 60 59 58 57 56 55 54 52 50 46 43 42 41 40 38 35 32 29 25 21 17
61 61 60 59 59 58 57 56 56 56 56 56 54 54 56 57 58 59 58 58 58 58 58 57 56 55 54 53 53 51 48 44 40 38 37 37 35 32 30 26 22 18 14
58 58 57 56 56 54 53 53 54 54 54 53 53 53 54 55 56 57 56 56 56 56 55 54 54 53 53 52 51 50 48 44 39 37 35 34 32 29 27 23 19 14 12
53 53 52 52 52 51 51 51 51 51 51 51 51 52 52 53 54 55 54 54 55 54 54 53 52 51 51 50 50 48 45 42 38 36 35 32 29 27 24 20 15 11 10
49 49 50 50 49 49 49 50 50 49 49 49 50 50 51 52 52 52 52 52 53 53 52 51 51 50 49 49 48 47 44 41 37 35 33 30 27 24 20 17 12 9 9
49 49 49 49 48 49 49 49 49 48 48 48 48 48 49 50 50 50 50 50 51 51 51 50 50 49 48 47 47 45 43 40 36 33 31 27 24 21 17 13 10 7 9
51 51 51 50 50 50 49 49 48 48 48 48 48 47 47 48 48 48 48 48 49 49 48 48 48 47 46 46 46 44 41 39 35 32 29 25 22 19 15 11 7 6 8
52 52 52 52 51 51 50 50 50 49 48 47 47 46 45 46 46 46 47 46 47 47 46 46 46 45 45 44 44 42 39 37 33 29 27 23 19 16 13 9 6 5 8
53 53 52 51 51 51 51 51 50 50 49 47 46 44 44 44 44 44 45 44 45 45 45 45 45 44 43 43 43 40 37 35 30 27 24 21 17 13 10 7 4 5 7
53 53 53 52 52 52 52 52 51 50 48 46 45 43 43 43 42 43 43 42 42 43 43 43 43 43 42 42 41 39 36 33 29 26 23 19 15 11 9 6 4 5 7
55 55 55 55 55 54 54 53 51 49 46 44 43 41 40 40 40 41 40 40 40 41 41 42 42 41 41 42 40 38 35 32 28 25 21 17 13 10 8 6 4 4 7
56 56 56 56 56 55 53 52 49 46 44 42 40 38 38 38 38 39 38 38 38 39 39 40 40 40 40 40 39 36 34 32 28 24 19 15 11 8 6 4 2 3 6
58 57 57 56 55 54 52 50 47 44 42 40 38 36 36 36 36 36 35 35 36 37 38 39 39 39 39 39 37 35 34 32 28 24 18 13 10 7 5 3 2 3 6
58 57 56 56 55 53 50 47 44 42 39 36 35 34 33 34 34 33 33 33 34 35 36 37 38 38 37 37 35 34 33 31 28 23 16 12 8 5 3 3 3 4 5
56 55 55 54 54 52 48 45 42 38 36 33 32 31 31 31 31 30 30 31 32 33 35 36 37 36 36 35 34 33 32 31 27 21 15 10 6 3 3 4 5 5 5
56 56 55 53 52 49 45 42 38 35 33 31 29 29 29 29 28 27 28 28 30 31 33 34 35 34 34 34 33 33 32 31 27 20 13 7 3 3 4 4 4 4 6
56 55 53 51 49 45 41 38 34 32 30 28 26 26 26 26 25 25 25 26 28 30 32 33 33 33 33 33 32 33 32 30 26 18 11 4 2 5 5 6 6 6 7
54 53 51 48 44 41 37 33 30 28 26 24 24 24 23 23 22 22 22 24 26 28 30 31 31 31 32 32 32 32 31 29 24 16 7 0 5 7 7 7 7 8 9
Wind_Direction
296 299 301 303 305 306 308 310 311 312 314 315 317 318 320 320 322 323 323 323 323 325 326 328 328 329 330 330 330 329 328 327 329 330 325 322 320 318 316 314 307 290 271
295 297 300 302 303 305 307 309 311 312 313 315 317 318 319 320 321 322 322 322 323 325 326 328 329 330 331 330 330 329 328 327 328 330 327 324 322 318 316 314 309 297 277
295 297 299 300 302 304 306 308 310 311 313 315 317 318 319 319 320 321 321 322 323 325 327 328 329 330 331 331 331 330 329 328 327 328 328 326 324 320 316 314 310 300 283
295 296 298 299 301 304 306 307 309 310 313 315 317 318 318 318 319 320 321 321 323 325 327 329 330 331 331 331 331 331 329 329 328 328 328 327 325 322 319 316 312 303 287
294 296 297 299 301 303 305 307 309 310 312 314 316 317 317 318 319 320 321 321 323 325 327 329 330 330 331 332 333 332 331 330 329 328 329 329 327 325 322 318 314 305 290
294 295 297 299 302 304 306 307 309 310 312 313 315 316 317 317 318 319 320 321 323 325 327 329 330 331 332 333 333 333 331 330 329 329 329 328 328 326 324 320 315 307 292
296 297 298 300 302 304 305 307 309 310 312 314 315 315 316 317 318 319 320 321 323 325 328 329 331 331 332 333 334 334 332 330 329 328 328 328 327 325 323 321 316 308 294
297 298 299 301 302 303 305 308 309 311 313 314 315 315 315 316 317 319 320 321 323 325 328 330 331 332 332 333 334 334 334 331 329 327 326 327 326 325 324 321 315 307 293
297 299 300 301 303 304 306 308 309 311 312 313 314 315 315 316 317 318 320 321 323 325 327 330 331 332 333 333 335 336 335 332 329 327 327 327 327 326 325 322 315 305 290
299 299 300 301 303 305 307 309 310 311 312 313 314 314 315 316 317 318 320 321 323 325 327 329 331 332 333 334 336 336 336 333 330 328 327 327 327 326 325 322 315 302 283
301 302 302 303 304 305 307 309 310 311 312 313 314 314 314 316 317 318 319 321 323 325 327 330 331 332 334 334 336 336 336 335 332 331 329 329 328 326 325 322 314 299 271
305 305 305 305 305 306 308 309 311 312 312 313 313 314 314 315 316 317 319 321 323 325 327 330 332 333 334 335 336 337 336 336 334 333 332 331 330 328 325 322 313 292 259
308 309 308 308 308 308 308 309 311 312 313 313 313 314 315 315 316 317 318 321 323 325 328 330 332 333 334 335 336 337 337 337 336 335 334 332 331 330 327 323 312 283 244
308 309 309 309 309 309 309 310 311 312 313 314 314 314 314 315 316 317 318 320 323 325 328 331 332 333 335 336 337 338 338 338 338 337 336 335 333 333 330 323 311 276 233
308 308 307 307 307 308 308 309 311 311 312 313 314 314 314 315 316 317 318 320 323 325 328 330 332 333 335 336 338 338 338 338 338 338 338 337 336 335 332 323 305 265 225
307 307 306 306 306 306 307 308 309 310 311 312 313 313 313 314 316 317 317 320 322 325 328 330 332 333 335 337 338 338 338 338 338 338 338 338 337 335 332 324 296 251 221
307 306 305 305 305 305 305 306 307 308 309 310 311 310 311 312 315 316 317 319 322 324 328 330 332 333 335 337 339 339 339 339 338 338 337 337 337 336 334 326 294 249 221
306 306 305 304 304 303 303 303 303 305 306 306 307 307 309 311 313 314 316 319 321 324 328 330 332 334 336 338 339 340 339 339 338 337 336 334 334 333 330 323 297 244 218
306 305 304 303 302 302 302 302 301 301 302 302 303 304 306 309 311 313 315 318 320 324 328 330 332 334 336 338 339 340 340 339 338 336 333 331 329 328 324 320 296 235 205
306 305 303 303 302 301 301 301 300 298 298 299 300 301 303 306 309 311 314 317 320 324 328 330 333 335 337 339 340 341 341 340 338 336 332 328 325 321 318 316 300 215 198
306 305 304 303 302 301 300 299 299 297 295 295 296 297 300 304 307 310 313 316 320 324 328 331 333 335 337 339 341 342 342 341 339 336 330 325 319 313 300 285 258 206 195
306 305 304 303 302 301 299 296 295 294 292 292 293 294 297 301 304 308 312 315 320 325 329 331 334 336 338 340 342 343 343 342 340 335 330 324 316 305 271 230 204 187 184
306 305 304 303 302 301 298 295 292 290 288 288 289 290 293 298 302 307 311 315 320 326 329 332 335 337 339 341 343 344 344 343 341 336 330 323 311 275 216 189 184 189 184
307 306 304 302 301 299 296 293 289 285 284 284 284 286 290 295 300 305 310 315 321 326 330 333 336 338 341 342 343 345 345 345 343 338 332 321 289 196 175 174 172 167 166
308 308 306 303 300 297 293 289 284 280 278 277 278 281 286 292 298 304 309 316 323 327 331 335 337 340 342 343 344 345 346 346 345 341 335 318 194 170 163 159 156 154 154
311 310 308 305 300 295 291 286 280 274 269 269 272 276 283 289 296 303 310 318 324 329 333 336 339 341 344 345 345 346 348 349 349 346 342 225 165 160 154 153 152 152 149
Height
5694 5689 5683 5676 5668 5661 5653 5645 5636 5627 5618 5608 5598 5587 5576 5564 5552 5540 5527 5513 5499 5484 5468 5453 5437 5420 5404 5388 5372 5358 5344 5330 5320 5314 5303 5292 5280 5271 5263 5256 5250 5246 5244
5682 5676 5670 5663 5655 5648 5640 5632 5624 5615 5605 5595 5585 5574 5563 5551 5539 5527 5514 5501 5487 5472 5457 5441 5426 5409 5394 5378 5364 5350 5336 5323 5312 5304 5296 5285 5274 5264 5256 5249 5242 5237 5235
5669 5663 5656 5649 5642 5635 5627 5619 5611 5601 5592 5582 5572 5561 5550 5539 5527 5515 5502 5489 5475 5461 5446 5431 5415 5400 5385 5370 5356 5342 5329 5316 5305 5295 5288 5278 5268 5257 5249 5242 5235 5229 5226
5655 5649 5643 5635 5628 5622 5614 5606 5597 5588 5579 5569 5559 5549 5537 5526 5514 5503 5491 5478 5464 5450 5435 5420 5405 5390 5376 5362 5348 5334 5322 5310 5298 5288 5280 5271 5261 5251 5242 5235 5229 5222 5219
5641 5635 5628 5621 5615 5608 5600 5592 5583 5574 5565 5556 5546 5536 5525 5514 5502 5491 5479 5467 5453 5439 5425 5410 5395 5381 5367 5352 5338 5325 5313 5301 5291 5281 5272 5263 5254 5245 5236 5228 5222 5216 5212
5627 5620 5614 5607 5600 5593 5585 5577 5569 5561 5552 5543 5533 5523 5512 5502 5491 5479 5468 5456 5443 5430 5416 5401 5387 5372 5358 5345 5331 5317 5304 5293 5283 5274 5265 5256 5248 5239 5230 5223 5216 5211 5207
5612 5605 5598 5592 5585 5578 5571 5563 5555 5547 5538 5530 5520 5511 5500 5490 5479 5468 5456 5445 5433 5420 5406 5393 5379 5365 5351 5338 5325 5312 5299 5287 5277 5268 5259 5251 5242 5234 5226 5218 5212 5206 5203
5596 5590 5583 5577 5571 5564 5556 5549 5541 5533 5525 5517 5508 5498 5489 5478 5468 5457 5446 5435 5422 5410 5397 5384 5371 5358 5344 5331 5319 5307 5294 5282 5272 5263 5255 5246 5238 5229 5221 5215 5209 5204 5200
5580 5575 5569 5562 5556 5549 5542 5535 5528 5520 5512 5504 5495 5486 5477 5467 5456 5446 5436 5425 5413 5400 5387 5375 5362 5350 5338 5325 5313 5301 5290 5278 5267 5258 5249 5241 5233 5225 5217 5211 5206 5201 5199
5565 5559 5553 5547 5541 5535 5529 5522 5515 5507 5500 5492 5483 5474 5465 5456 5446 5436 5425 5415 5404 5392 5379 5367 5354 5342 5330 5317 5306 5295 5284 5274 5264 5255 5246 5237 5229 5222 5215 5208 5203 5199 5197
5551 5545 5539 5533 5527 5521 5515 5509 5502 5495 5488 5480 5471 5463 5454 5445 5435 5425 5416 5406 5395 5384 5371 5359 5347 5335 5323 5311 5300 5288 5278 5268 5259 5251 5242 5234 5226 5219 5213 5207 5202 5199 5197
5538 5532 5526 5520 5514 5508 5502 5496 5489 5482 5475 5467 5459 5451 5442 5434 5425 5415 5406 5396 5386 5376 5364 5352 5341 5329 5317 5306 5295 5284 5273 5263 5254 5246 5238 5231 5224 5217 5211 5206 5202 5199 5198
5526 5520 5514 5508 5502 5495 5490 5483 5477 5470 5463 5455 5447 5439 5431 5423 5415 5406 5397 5387 5377 5367 5356 5345 5334 5323 5312 5301 5290 5279 5269 5259 5251 5243 5235 5227 5221 5215 5209 5205 5201 5200 5199
5514 5508 5502 5496 5490 5484 5477 5471 5465 5458 5451 5443 5436 5428 5420 5412 5404 5396 5387 5378 5369 5359 5348 5337 5327 5316 5306 5295 5285 5274 5264 5255 5247 5239 5232 5225 5219 5213 5209 5205 5202 5201 5201
5502 5496 5489 5483 5477 5471 5465 5459 5452 5446 5439 5432 5425 5417 5410 5402 5395 5387 5379 5370 5361 5351 5341 5331 5321 5311 5300 5290 5279 5269 5260 5251 5243 5236 5229 5223 5218 5213 5208 5205 5203 5202 5202
5489 5483 5476 5470 5464 5458 5452 5446 5440 5434 5427 5420 5414 5407 5400 5393 5385 5378 5370 5362 5353 5344 5334 5325 5315 5305 5296 5286 5276 5266 5256 5248 5240 5234 5227 5222 5217 5212 5208 5206 5204 5203 5204
5475 5469 5463 5457 5451 5445 5439 5433 5427 5421 5415 5409 5403 5396 5390 5383 5376 5369 5362 5354 5346 5337 5328 5319 5309 5300 5290 5281 5271 5262 5253 5245 5237 5231 5225 5220 5216 5212 5209 5206 5205 5204 5205
5461 5455 5449 5443 5437 5431 5425 5419 5414 5408 5403 5397 5392 5386 5380 5373 5367 5361 5354 5346 5338 5330 5322 5313 5304 5294 5285 5276 5267 5257 5249 5241 5234 5228 5223 5219 5215 5211 5209 5206 5205 5205 5205
5447 5440 5434 5428 5422 5416 5410 5404 5399 5394 5390 5385 5380 5375 5370 5364 5359 5353 5346 5339 5332 5324 5315 5307 5298 5289 5280 5271 5262 5253 5245 5238 5231 5225 5221 5217 5213 5210 5208 5206 5205 5205 5205
5432 5425 5418 5412 5406 5400 5394 5389 5384 5380 5376 5372 5368 5364 5360 5355 5350 5345 5339 5332 5325 5317 5309 5301 5293 5284 5275 5267 5258 5249 5242 5234 5228 5222 5218 5214 5212 5209 5208 5206 5205 5205 5205
5416 5409 5402 5395 5389 5383 5378 5373 5369 5365 5362 5360 5357 5354 5351 5347 5342 5337 5332 5325 5319 5311 5304 5296 5288 5279 5271 5262 5254 5246 5239 5231 5225 5219 5215 5212 5210 5208 5207 5206 5205 5205 5206
5399 5392 5385 5379 5373 5367 5362 5358 5355 5352 5349 5348 5346 5344 5341 5338 5334 5330 5325 5319 5313 5306 5299 5291 5283 5275 5267 5259 5251 5243 5236 5229 5222 5217 5213 5210 5208 5207 5206 5205 5205 5206 5207
5383 5376 5369 5362 5356 5351 5347 5343 5340 5339 5337 5337 5336 5334 5333 5330 5327 5323 5318 5313 5307 5301 5294 5286 5279 5271 5263 5255 5247 5240 5233 5226 5219 5214 5210 5208 5207 5206 5206 5206 5206 5207 5208
5367 5360 5353 5346 5340 5335 5332 5329 5327 5326 5326 5326 5326 5326 5324 5322 5320 5317 5312 5307 5302 5296 5289 5282 5275 5267 5260 5252 5245 5237 5230 5223 5217 5212 5208 5206 5205 5205 5206 5207 5207 5208 5209
5351 5343 5336 5329 5324 5320 5317 5315 5314 5315 5316 5317 5317 5317 5317 5315 5313 5311 5307 5302 5297 5292 5285 5279 5271 5264 5257 5249 5242 5235 5228 5221 5215 5210 5206 5205 5205 5206 5207 5208 5209 5210 5211
5335 5327 5319 5313 5308 5305 5303 5302 5302 5304 5306 5308 5309 5310 5310 5309 5308 5305 5302 5298 5293 5288 5282 5275 5268 5261 5254 5247 5240 5233 5226 5219 5213 5208 5206 5205 5206 5207 5208 5210 5211 5212 5214